Location: Unspecified
(52.1384°N, 8.6525°W)
Time: 10:53:30
(UTC+00:00)

XW-2F - Pass Details

Date: 23 January 2021
Orbit: 500 x 519 km, 97.5° (Epoch: 24 February)

Event Time Altitude Azimuth Distance (km) Brightness Sun altitude
Rises 18:06:22 0° 180° (S) 2,607 ? -9.2°
Reaches altitude 10° 18:08:30 10° 186° (S) 1,730 ? -9.5°
Maximum altitude 18:12:06 46° 261° (W) 703 ? -10.0°
Drops below altitude 10° 18:15:45 10° 336° (NNW) 1,756 ? -10.5°
Sets 18:17:56 0° 342° (NNW) 2,652 ? -10.8°
